sat.trackr.live / text

‹ back to catalog

COSMOS 2614

NORAD 68764 · 2026-083K

PAYLOAD ACTIVE UNKNOWN

§ Identity

Operator
Country
CIS
Launch date
2026-04-16
Launch site
PLMSC
Launch vehicle
Mass (kg)
RCS (m²)

External: N2YO · Heavens-Above · Gunter

§ Orbital elements

Epoch: 2026-09-19T22:44:36.512448Z

Period
95.61 min
Inclination
97.7913°
Eccentricity
0.0007522
Mean motion
15.06108055 rev/d
Perigee alt
542.9 km
Apogee alt
553.3 km
Semi-major
6,926.2 km
B*
1.0755e-4
RAAN
41.0469°
Arg perigee
62.4337°
Mean anomaly
297.7653°
Rev number
2,346

§ Raw data

COSMOS 26141 68764U 26083K   26262.94764482  .00001508  00000+0  10755-3 0  99962 68764  97.7913  41.0469 0007522  62.4337 297.7653 15.06108055 23469

JSON: /api/v1/satellites/68764 · /tle

For live sub-satellite position, see the globe view (requires WebGL).

§ Visibility from observer

Set your observer location to see the next 7 days of passes ≥ 10°. The values pass through the URL so the page stays shareable.

No JS? Fill the form by hand. The geolocation button needs JavaScript.